Torna al catalogo

DELTA 1 DEB

AttivoLEO
NORAD 39096·DEBRIS·🇺🇸 United States

Lanciato Nov 6, 1973 da Vandenberg Space Force Base

Loading…

Prossimi Passaggi (prossime 24 ore)

TLE

In scadenzaSource: Space-Track

Epoca: Sep 9, 2026, 04:51 UTC

1 39096U 73086HJ  26252.20232162 -.00000051  00000-0 -74868-4 0  9991
2 39096 101.3705 157.9958 0075908 200.6572 159.1418 12.38207453567845

Traccia DELTA 1 DEB in tempo reale con AllMySat

Download on the App Store